Regional Weather Roundup
Issued by NWS Sterling, VA

Home | Current Version | Previous Version | Text Only | Print | Product List | Glossary Off
Versions: 1 2 3 4 5 6 7 8 9 10 11 12 13 14 15 16 17 18 19 20 21 22 23 24 25 26 27 28 29 30 31 32 33 34 35 36 37 38 39 40 41 42 43 44 45 46 47 48 49 50

000
ASUS41 KLWX 271111
RWRLWX

REGIONAL WEATHER ROUNDUP
NATIONAL WEATHER SERVICE BALTIMORE MD/WASHINGTON DC
700 AM EDT TUE JUN 27 2017

Note: "FAIR" indicates few or no clouds below 12,000 feet
with no significant weather and/or obstructions to visibility.
 TC=TEMPERATURE CELSIUS

 * =Non NWS site. Station does not report precipitation (e.g. rain,
    snow, etc.), thunder, or fog.

DCZ001-MDZ009-015-VAZ040>042-051-053>054-271200-
WASHINGTON METRO

CITY           SKY/WX    TMP DP  RH WIND       PRES   REMARKS
WASHINGTON NAT LGT RAIN  69  54  58 CALM      30.04R
DULLES         CLOUDY    62  54  74 CALM      30.03S
ANDREWS AFB    DRIZZLE   66  53  63 N3        30.02S
FT BELVOIR     CLOUDY    61  57  87 CALM      30.03F
QUANTICO       CLOUDY    65  57  75 NW6       30.04F
COLLEGE PARK*  CLOUDY    61  56  83 CALM      30.03R
LEESBURG*      CLOUDY    63  55  77 NW3       30.05R
MANASSAS*      PTSUNNY   59  57  93 CALM      30.04S
GAITHERSBURG*  CLOUDY    60  53  77 CALM      30.05R

$$

MDZ006>007-011-014-271200-
BALTIMORE METRO

CITY           SKY/WX    TMP DP  RH WIND       PRES   REMARKS
BWI AIRPORT    PTSUNNY   64  57  78 CALM      30.02R
MD SCIENCE CTR   N/A     70  54  56 MISG      30.02S
MARTIN STATE   CLOUDY    64  61  88 W5        30.03R
ANNAPOLIS      CLOUDY    66  59  78 W6        30.03R
FORT MEADE*    CLOUDY    59  55  88 CALM      30.06R

$$

MDZ012-015-019>023-271200-
MARYLAND EASTERN SHORE

CITY           SKY/WX    TMP DP  RH WIND       PRES   REMARKS
OCEAN CITY     MOSUNNY   71  67  87 SW5       30.01R
SALISBURY      PTSUNNY   64  62  93 CALM      30.00R
BAY BRIDGE AP* CLOUDY    70  59  68 NW7       30.03R
CAMBRIDGE*     PTSUNNY   66  59  77 W6        30.04R
EASTON*        RAIN      66  59  77 CALM      30.08R

$$

MDZ017>025-271200-
SOUTHERN MARYLAND

CITY           SKY/WX    TMP DP  RH WIND       PRES   REMARKS
PATUXENT RIVER CLOUDY    69  54  58 NW25      30.03R
ST INIGOES     LGT RAIN  68  57  68 N6        30.04R
LEONARDTOWN*   NOT AVBL

$$

MDZ003>005-271200-
NORTH CENTRAL MARYLAND

CITY           SKY/WX    TMP DP  RH WIND       PRES   REMARKS
FREDERICK*     MOSUNNY   61  59  94 CALM      30.06S
HAGERSTOWN APT CLOUDY    64  51  62 CALM      30.03F
WESTMINSTER*   CLOUDY    63  55  77 CALM      30.04S

$$

MDZ501>502-271200-
WESTERN MARYLAND

CITY           SKY/WX    TMP DP  RH WIND       PRES   REMARKS
OAKLAND*       NOT AVBL
CUMBERLAND*    MOSUNNY   59  52  77 CALM      30.09R

$$

VAZ025>031-271200-
SHENANDOAH VALLEY

CITY           SKY/WX    TMP DP  RH WIND       PRES   REMARKS
WINCHESTER*    CLOUDY    61  48  63 CALM      30.05R
FRONT ROYAL*   PTSUNNY   57  52  82 CALM      30.04R
LURAY*         CLOUDY    55  54  94 CALM      30.05S
NEW MARKET*    CLOUDY    56  52  87 CALM      30.05S
STAUNTON*      MOSUNNY   52  50  93 CALM      30.09S
WAYNESBORO*    CLOUDY    61  48  64 W6        30.08R

$$

WVZ021-048>050-054>055-271200-
EASTERN WEST VIRGINIA PANHANDLE

CITY           SKY/WX    TMP DP  RH WIND       PRES   REMARKS
MARTINSBURG    PTSUNNY   65  48  54 NW5       30.03S
PETERSBURG*    CLOUDY    58  55  92 CALM      30.06F

$$

VAZ036>039-050-271200-
CENTRAL FOOTHILLS

CITY           SKY/WX    TMP DP  RH WIND       PRES   REMARKS
CHARLOTTESVILL CLOUDY    66  52  60 SW3       30.04R
CULPEPER*      CLOUDY    60  59  95 CALM      30.05R
ORANGE*        CLOUDY    59  57  94 CALM      30.04F
GORDONSVILLE*  CLOUDY    61  57  86 CALM      30.04S
WARRENTON*     CLOUDY    60  56  87 CALM      30.03S

$$

VAZ055>057-271200-
NORTH AND CENTRAL PIEDMONT

CITY           SKY/WX    TMP DP  RH WIND       PRES   REMARKS
FREDERICKSBRG* CLOUDY    61  61 100 CALM      30.03R
STAFFORD*      CLOUDY    58  58 100 CALM      30.08R

$$

NCZ024-NYZ072-PAZ021-071-VAZ022-071-271200-
OTHER REGIONAL OBSERVATIONS

CITY           SKY/WX    TMP DP  RH WIND       PRES   REMARKS
NEW YORK CITY  CLOUDY    61  60  97 CALM      30.03F
PHILADELPHIA   PTSUNNY   64  60  87 CALM      30.01R
PITTSBURGH     MOSUNNY   55  51  86 SW5       30.04R
ROANOKE        CLOUDY    62  51  67 NW3       30.10R
RICHMOND       CLOUDY    65  57  75 N6        30.03R
RALEIGH        MOCLDY    64  61  90 CALM      30.05R

$$

ANZ530>537-271200-
MARINE OBSERVATIONS

STATION/POSITION TIME  TEMP    WIND        PRES
                       AIR SEA DIR/SP/G
                 (UTC) (F)     (DEG/KT/KT) (MB)
THOMAS PT LIGHT  1100   70 77  270/  6/  8   N/A
BALT KEY BRIDGE  1048   69     300/  8/  9 1016.1R
COVE POINT       1048   68     350/ 22/ 29 1017.9R
LEWISETTA        1048   69 80  340/  5/  8 1016.8R
SOLOMONS ISLAND  1048          330/ 16/ 23   N/A
PINEY POINT      1048           10/ 17/ 19   N/A

$$




USA.gov is the U.S. government's official web portal to all federal, state and local government web resources and services.